Weather History for Kecskemet, Hungary

Change the Weather History Date:

Friday, February 22, 2013

  Actual Average (LHBP) Record (LHBP)
Temperature  
Mean Temperature 30 °F -  
Max Temperature 33 °F 41 °F 62 °F (1998)
Min Temperature 28 °F 26 °F 17 °F (2000)
Degree Days  
Heating Degree Days 34    
Moisture  
Dew Point 31 °F    
Average Humidity 99    
Maximum Humidity 100    
Minimum Humidity 93    
Precipitation  
Precipitation 0.00 in - - ()
Sea Level Pressure  
Sea Level Pressure 29.79 in    
Wind  
Wind Speed 10 mph ()    
Max Wind Speed 16 mph    
Max Gust Speed -    
Visibility 1.0 miles    
Events Fog , Rain , Snow    
Averages and records for this station are not official NWS values.
T = Trace of Precipitation, MM = Missing Value Source: Averaged Metar Reports

Daily Weather History Graph

Daily Weather History Graph

Search for Another Location

Airport:

Trip Planner

Search our weather history database for the weather conditions in past years. The results will help you decide how hot, cold, wet, or windy it might be!

Date:

Astronomy

Feb. 22, 2013 Rise Set
Actual Time 6:33 AM CET 5:16 PM CET
Civil Twilight 6:02 AM CET 5:47 PM CET
Nautical Twilight 5:27 AM CET 6:22 PM CET
Astronomical Twilight 4:52 AM CET 6:57 PM CET
Moon 2:02 PM CET (2/22) 4:15 AM CET (2/22)
Length of Visible Light 11h 44m
Length of Day
10h 42m
Waxing Gibbous, 88% of the Moon is Illuminated
Feb 22
Waxing Gibbous
Feb 25
Full
Mar 4
Last Quarter
Mar 11
New
Mar 19
First Quarter

Hourly Weather History & Observations

Time (CET) Temp. Windchill Dew Point Humidity Pressure Visibility Wind Dir Wind Speed Gust Speed Precip Events Conditions
12:15 AM 30.2 °F 19.9 °F 28.4 °F 93% 29.92 in 2.5 mi NNE 13.4 mph - N/A Snow Light Snow
12:45 AM 28.4 °F 17.6 °F 28.4 °F 100% 29.89 in 1.9 mi NNE 13.4 mph - N/A Snow Light Snow
1:15 AM 28.4 °F 17.6 °F 28.4 °F 100% 29.89 in 1.2 mi NNE 13.4 mph - N/A Snow Light Snow
1:45 AM 28.4 °F 17.6 °F 26.6 °F 93% 29.89 in 1.2 mi NNE 13.4 mph - N/A Snow Light Snow
2:15 AM 28.4 °F 16.7 °F 26.6 °F 93% 29.86 in 1.2 mi NNE 15.7 mph - N/A Snow Light Snow
2:45 AM 28.4 °F 17.6 °F 28.4 °F 100% 29.86 in 1.2 mi NNE 13.4 mph - N/A Snow Light Snow
3:15 AM 28.4 °F 17.6 °F 28.4 °F 100% 29.83 in 0.9 mi NNE 13.4 mph - N/A Snow Light Snow
3:45 AM 28.4 °F 17.6 °F 28.4 °F 100% 29.83 in 1.2 mi NE 13.4 mph - N/A Snow Light Snow
4:15 AM 28.4 °F 17.6 °F 28.4 °F 100% 29.83 in 1.2 mi NE 13.4 mph - N/A Snow Light Snow
4:36 AM 28.4 °F 18.7 °F 28.4 °F 100% 29.83 in 1.2 mi NE 11.2 mph - N/A Snow Snow
4:45 AM 28.4 °F 17.6 °F 28.4 °F 100% 29.83 in 1.2 mi NE 13.4 mph - N/A Snow Snow
5:15 AM 28.4 °F 18.7 °F 28.4 °F 100% 29.80 in 1.2 mi NE 11.2 mph - N/A Snow Snow
5:45 AM - - - N/A% - 1.9 mi NE 11.2 mph - N/A   Overcast
6:15 AM 28.4 °F 18.7 °F 28.4 °F 100% 29.80 in 1.2 mi NE 11.2 mph - N/A Snow Snow
6:45 AM 28.4 °F 19.9 °F 28.4 °F 100% 29.80 in 1.2 mi NE 8.9 mph - N/A Snow Snow
7:13 AM 28.4 °F 19.9 °F 28.4 °F 100% 29.80 in 0.9 mi NE 8.9 mph - N/A Snow Snow
7:15 AM 28.4 °F 19.9 °F 28.4 °F 100% 29.80 in 0.9 mi NE 8.9 mph - N/A Snow Snow
7:45 AM 30.2 °F 20.9 °F 28.4 °F 93% 29.80 in 1.2 mi NE 11.2 mph - N/A Snow Snow
8:15 AM 30.2 °F 20.9 °F 28.4 °F 93% 29.80 in 1.2 mi NE 11.2 mph - N/A Snow Snow
8:45 AM - - - N/A% - 1.9 mi NE 11.2 mph - N/A   Mostly Cloudy
9:15 AM 30.2 °F 20.9 °F 28.4 °F 93% 29.77 in 1.9 mi ENE 11.2 mph - N/A Snow Light Snow
9:45 AM 30.2 °F 20.9 °F 30.2 °F 100% 29.77 in 1.9 mi ENE 11.2 mph - N/A Snow Light Snow
9:57 AM - - - N/A% - 1.9 mi NE 11.2 mph - N/A   Mostly Cloudy
10:15 AM 30.2 °F 22.1 °F 30.2 °F 100% 29.77 in 0.9 mi ENE 8.9 mph - N/A Snow Light Snow
10:45 AM 30.2 °F 20.9 °F 30.2 °F 100% 29.77 in 1.9 mi ENE 11.2 mph - N/A Snow Light Snow
11:15 AM 32.0 °F 24.3 °F 30.2 °F 93% 29.77 in 1.2 mi ENE 8.9 mph - N/A Snow Light Snow
11:45 AM - - - N/A% - 1.9 mi Variable 4.5 mph - N/A   Overcast
12:15 PM 32.0 °F 25.7 °F 32.0 °F 100% 29.77 in 1.2 mi ENE 6.7 mph - N/A Snow Light Snow
12:45 PM 32.0 °F 24.3 °F 32.0 °F 100% 29.74 in 1.2 mi ENE 8.9 mph - N/A Snow Light Snow
1:15 PM 32.0 °F 24.3 °F 32.0 °F 100% 29.74 in 1.2 mi ENE 8.9 mph - N/A Snow Light Snow
1:45 PM 32.0 °F 24.3 °F 32.0 °F 100% 29.74 in 0.9 mi ENE 8.9 mph - N/A Snow Light Snow
2:15 PM 32.0 °F 25.7 °F 32.0 °F 100% 29.74 in 0.6 mi ENE 6.7 mph - N/A Snow Light Snow
2:45 PM - - - N/A% - 0.9 mi East 4.5 mph - N/A   Overcast
2:56 PM 32.0 °F 24.3 °F 32.0 °F 100% 29.74 in 0.6 mi ENE 8.9 mph - N/A Rain Light Rain
3:00 PM - - - N/A% - 0.9 mi ENE 6.7 mph - N/A   Overcast
3:15 PM 33.8 °F 26.5 °F 33.8 °F 100% 29.74 in 0.6 mi ENE 8.9 mph - N/A Rain Light Rain
3:45 PM 33.8 °F 26.5 °F 33.8 °F 100% 29.74 in 0.6 mi ENE 8.9 mph - N/A Rain Light Rain
4:15 PM 33.8 °F 26.5 °F 33.8 °F 100% 29.74 in 0.6 mi East 8.9 mph - N/A Rain Light Rain
4:45 PM 33.8 °F 26.5 °F 33.8 °F 100% 29.74 in 0.5 mi East 8.9 mph - N/A Fog , Rain Light Rain
5:15 PM 33.8 °F 27.9 °F 33.8 °F 100% 29.74 in 0.4 mi East 6.7 mph - N/A Fog Drizzle
5:45 PM - - - N/A% - 0.9 mi East 6.7 mph - N/A   Overcast
5:55 PM - - - N/A% - 0.9 mi ENE 6.7 mph - N/A   Overcast
6:15 PM 33.8 °F 27.9 °F 33.8 °F 100% 29.77 in 0.4 mi East 6.7 mph - N/A Fog Light Drizzle
6:45 PM 33.8 °F 29.7 °F 33.8 °F 100% 29.77 in 0.4 mi East 4.5 mph - N/A Fog Fog
7:08 PM 33.8 °F 29.7 °F 33.8 °F 100% 29.77 in 0.2 mi East 4.5 mph - N/A Fog Fog
7:15 PM 33.8 °F 29.7 °F 33.8 °F 100% 29.77 in 0.2 mi East 4.5 mph - N/A Fog Fog
7:24 PM - - - N/A% - 0.9 mi East 6.7 mph - N/A   Mostly Cloudy
7:45 PM 33.8 °F 29.7 °F 33.8 °F 100% 29.77 in 0.2 mi East 4.5 mph - N/A Fog Fog
8:15 PM 33.8 °F 29.7 °F 33.8 °F 100% 29.77 in 0.2 mi East 4.5 mph - N/A Fog Light Drizzle
8:32 PM 33.8 °F 29.7 °F 33.8 °F 100% 29.77 in 0.4 mi ESE 4.5 mph - N/A Fog Light Drizzle
8:45 PM - - - N/A% - 0.9 mi East 6.7 mph - N/A   Mostly Cloudy
9:15 PM 33.8 °F 27.9 °F 33.8 °F 100% 29.77 in 0.5 mi SE 6.7 mph - N/A Fog Light Drizzle
9:37 PM 33.8 °F 27.9 °F 33.8 °F 100% 29.77 in 0.9 mi ESE 6.7 mph - N/A   Light Drizzle
9:45 PM 33.8 °F 27.9 °F 33.8 °F 100% 29.77 in 0.9 mi SE 6.7 mph - N/A   Light Drizzle
10:15 PM 33.8 °F 27.9 °F 33.8 °F 100% 29.77 in 0.9 mi SE 6.7 mph - N/A   Light Drizzle
10:45 PM 32.0 °F 25.7 °F 32.0 °F 100% 29.77 in 0.9 mi SE 6.7 mph - N/A   Light Drizzle
11:15 PM 33.8 °F - 33.8 °F 100% 29.77 in 0.9 mi SE 2.2 mph - N/A   Overcast
11:45 PM - - - N/A% - 1.9 mi North - - N/A   Mostly Cloudy